weather.gov     
National Weather Service

Miscellaneous Local Product
NWS Homepage
This page is being discontinued on March 12, 2014.
The same data is available at this site. Please update your bookmarks.
Thank you, and we apologize for the inconvenience.
Please send an email to SR-SRH.Webmaster@noaa.gov with any concerns.


Current Version
Previous Version:    01  02  03  04  05  06  07  08  09  10  11  12  13  14  15  16  17  18  19  20  21  22  23  24  25  26  27  28  29  30  
   31  32  33  34  35  36  37  38  39  40  41  42  43  44  45  46  47  48  49  50  51  52  53  54  55  56  57  58  59  60  
[Printable]
094
AXUS43 KLBF 310110
MISLBF


WESTERN AND NORTH CENTRAL NEBRASKA HOURLY WEATHER ROUNDUP
NATIONAL WEATHER SERVICE NORTH PLATTE NE
800 PM CDT WED JUL 30 2014

***STATIONS NOT REPORTING VARIABLES SUCH AS SKY/WEATHER OR
PRESSURE ARE PROVIDED BY THE NEBRASKA DEPARTMENT OF
ROADS...RAWS...AND APRS NETWORKS...AND ARE NOT UNDER
NATIONAL WEATHER SERVICE QUALITY CONTROL***

...OBSERVATIONS IN AND NEAR THE EASTERN PANHANDLE OF NEBRASKA...

CITY           SKY/WX    TMP DP  RH WIND       PRES   REMARKS
PINE RIDGE     PTSUNNY   79  50  36 SW5       30.15F
CHADRON        MOSUNNY   80  48  32 W5        30.14F
ALLIANCE       PTSUNNY   76  50  40 SW8       30.20S
SIDNEY         CLOUDY    67  56  67 W12       30.28S
WHITECLAY        N/A     79  48  33 S3          N/A
RUSHVILLE        N/A     82  37  20 SW8         N/A
GORDON           N/A     86  46  24 W3          N/A
CRESCENT LAKE    N/A     76  51  40 SW3         N/A
LISCO            N/A     78  58  50 S8          N/A
$$

...OBSERVATIONS IN NORTH CENTRAL NEBRASKA...

CITY           SKY/WX    TMP DP  RH WIND       PRES   REMARKS
VALENTINE      PTSUNNY   81  52  36 S6        30.11S
THEDFORD       PTSUNNY   80  51  36 SE5       30.16S
AINSWORTH      PTCLDY    77  53  42 S8        30.13S
O`NEILL        PTCLDY    77  58  52 E5        30.12S
ORD            MOCLDY    78  58  49 E3        30.12S
BROKEN BOW     MOCLDY    76  57  51 SE3       30.15S
BROWNLEE         N/A     81  45  28 S7          N/A
SPRINGVIEW       N/A     80  57  45 SE3         N/A
DUNNING          N/A     78  53  41 S5          N/A
ROSE             N/A     80  63  55 CALM        N/A
NEWPORT          N/A     76  62  61 E5          N/A
SARGENT          N/A     79  53  40 CALM        N/A
COMSTOCK         N/A     82  60  48 CALM        N/A
CHAMBERS         N/A     79  53  39 CALM        N/A
EWING            N/A     74  63  67 CALM        N/A
$$

...OBSERVATIONS IN SOUTHWEST NEBRASKA AND FAR NORTHEAST COLORADO...

CITY           SKY/WX    TMP DP  RH WIND       PRES   REMARKS
WRAY             N/A     70  55  59 W5        30.24F
HOLYOKE        FAIR      72  59  64 W9        30.24S
IMPERIAL       CLOUDY    74  56  53 W5        30.20S
OGALLALA       CLOUDY    70  59  69 W9        30.20S
NORTH PLATTE   MOCLDY    77  57  50 SE3       30.16S
MCCOOK         PTCLDY    74  60  61 SW3       30.17S
LEXINGTON      MOCLDY    76  59  53 CALM      30.15S
SUTHERLAND       N/A     81  56  42 CALM        N/A
BRADY            N/A     78  57  48 CALM        N/A
GOTHENBURG       N/A     77  54  44 E6          N/A
CALLAWAY         N/A     81  65  58 CALM        N/A
$$

...SOME WEATHER OBSERVATIONS FROM AROUND THE REGION...

CITY           SKY/WX    TMP DP  RH WIND       PRES   REMARKS
DENVER         CLOUDY    60  55  83 E7        30.34S
LARAMIE        CLOUDY    57  50  77 S8        30.41R
CHEYENNE       CLOUDY    60  55  83 S8        30.36S
SCOTTSBLUFF    CLOUDY    74  56  53 SW9       30.23R
RAPID CITY     MOSUNNY   80  49  33 N7        30.15R
PIERRE         SUNNY     84  53  34 E6        30.04S
WINNER         MOCLDY    83  50  31 E6        30.07F
SIOUX FALLS    CLEAR     75  55  49 CALM      30.09F
OMAHA          MOCLDY    76  54  46 NE6       30.09S
GRAND ISLAND   MOCLDY    74  58  57 SE3       30.14S
KANSAS CITY    MOCLDY    76  59  55 N6        30.08S
WICHITA        CLOUDY    69  65  86 NE12      30.09S
HAYS           CLEAR     75  52  43 NE9       30.14S
LIBERAL        CLOUDY    66  57  72 NE14      30.21R
GOODLAND       CLOUDY    70  54  56 NW5       30.23F
$$




U.S. Dept. of Commerce
NOAA National Weather Service
1325 East West Highway
Silver Spring, MD 20910
E-mail: w-nws.webmaster@noaa.gov
Page last modified: May 16, 2007
NATIONAL WEATHER SERVICE: for Safety, for Work, for Fun - FOR LIFE